GW4598 Weather Reports


time (UTC)temp
F
wind
direction
speed
knots
gust
knots
rain 1hr
in
rain 24hr
in
rain mn
in
humidity
%
barometer
mb
20260507040805 50 193 1.7 1.7 0.00 0.00 0.00 97 1006.8
20260507040301 50 60 0.9 1.7 0.00 0.00 0.00 98 1006.8
20260507035757 50 113 0.9 0.9 0.00 0.20 0.20 98 1007.0
20260507035252 50 77 0.0 0.9 0.00 0.20 0.20 98 1007.0
20260507034750 51 51 0.9 0.9 0.00 0.20 0.20 98 1006.9
20260507034247 51 102 0.0 0.9 0.00 0.20 0.20 98 1006.9
20260507033746 51 148 0.9 0.9 0.00 0.20 0.20 97 1006.9
20260507033243 51 92 1.7 1.7 0.00 0.20 0.20 97 1007.1
20260507032740 52 220 5.2 7.0 0.00 0.20 0.20 96 1006.9
20260507032236 52 244 5.2 7.0 0.00 0.20 0.20 95 1006.9
20260507031732 53 219 2.6 2.6 0.00 0.20 0.20 95 1006.8
20260507031229 53 245 3.5 7.0 0.00 0.20 0.20 97 1006.8
20260507030726 53 263 6.1 7.8 0.00 0.20 0.20 98 1007.1
20260507030224 53 94 1.7 1.7 0.00 0.20 0.20 99 1006.7
20260507025721 54 102 0.0 0.0 0.00 0.20 0.20 99 1006.7
20260507025218 54 116 0.0 0.0 0.00 0.20 0.20 99 1006.6
20260507024716 54 83 0.0 0.0 0.00 0.20 0.20 99 1006.5
20260507024213 54 158 0.9 2.6 0.00 0.20 0.20 99 1006.5
20260507023708 55 67 0.9 0.9 0.07 0.20 0.20 99 1006.4
20260507023206 55 89 0.0 0.9 0.07 0.20 0.20 99 1006.5
20260507022703 56 91 0.0 0.0 0.00 0.19 0.19 99 1006.6
20260507022158 57 28 2.6 2.6 0.00 0.19 0.19 99 1006.5
20260507021655 57 125 1.7 1.7 0.00 0.19 0.19 99 1006.3
20260507021150 57 245 2.6 4.3 0.00 0.19 0.19 99 1006.4
20260507020649 57 222 4.3 5.2 0.00 0.19 0.19 99 1006.3
20260507020144 57 216 5.2 6.1 0.00 0.19 0.19 99 1006.2
20260507015643 57 237 4.3 5.2 0.00 0.19 0.19 99 1006.3
20260507015140 57 238 4.3 5.2 0.00 0.19 0.19 99 1006.4
20260507014636 57 215 4.3 5.2 0.00 0.19 0.19 99 1006.3
20260507014132 57 237 5.2 6.1 0.00 0.19 0.19 99 1006.5
20260507013630 57 234 5.2 6.1 0.00 0.19 0.19 99 1006.4
20260507013126 57 218 4.3 6.1 0.00 0.19 0.19 99 1006.2
20260507012624 57 222 5.2 6.1 0.00 0.19 0.19 99 1006.4
20260507012119 57 229 6.1 7.0 0.00 0.19 0.19 99 1006.4
20260507011618 57 231 6.1 7.0 0.00 0.19 0.19 99 1006.4
20260507011113 57 228 4.3 7.0 0.00 0.19 0.19 99 1006.4
20260507010609 57 216 4.3 5.2 0.00 0.19 0.19 99 1006.3
20260507010104 57 209 2.6 2.6 0.00 0.19 0.19 99 1006.5
20260507005602 57 194 2.6 4.3 0.00 0.19 0.19 99 1006.4
20260507005058 57 236 3.5 4.3 0.00 0.19 0.19 99 1006.4
20260507004555 57 197 3.5 4.3 0.00 0.19 0.19 99 1006.6
20260507004053 57 223 3.5 4.3 0.00 0.19 0.19 99 1006.3
20260507003548 57 227 4.3 5.2 0.00 0.19 0.19 99 1006.6
20260507003043 57 238 4.3 4.3 0.00 0.19 0.19 99 1006.6
20260507002540 57 211 5.2 6.1 0.00 0.19 0.19 99 1006.5
20260507002036 57 165 3.5 4.3 0.00 0.19 0.19 99 1006.3
20260507001533 57 162 2.6 4.3 0.00 0.19 0.19 99 1006.3
20260507001031 57 231 6.1 6.1 0.00 0.19 0.19 99 1006.3
20260507000527 57 225 3.5 6.1 0.00 0.19 0.19 99 1006.3
20260507000023 57 209 4.3 5.2 0.00 0.19 0.19 99 1006.2
20260506235520 57 202 4.3 5.2 0.00 0.19 0.19 99 1006.1
20260506235015 57 193 5.2 6.1 0.00 0.19 0.19 99 1006.2
20260506234513 57 233 4.3 5.2 0.00 0.19 0.19 99 1006.2
20260506234010 57 206 6.1 7.8 0.00 0.19 0.19 99 1006.4
20260506233507 57 202 6.1 7.0 0.00 0.19 0.19 99 1006.4
20260506233004 57 209 5.2 6.1 0.00 0.19 0.19 99 1006.4
20260506232500 57 191 4.3 6.1 0.00 0.19 0.19 99 1006.4
20260506231955 57 200 7.0 8.7 0.00 0.19 0.19 99 1006.3
20260506231453 57 233 4.3 5.2 0.00 0.19 0.19 99 1006.5
20260506230950 57 233 5.2 6.1 0.00 0.19 0.19 99 1006.4
20260506230445 57 199 7.8 8.7 0.00 0.19 0.19 98 1006.5
20260506225937 57 222 4.3 5.2 0.00 0.19 0.19 98 1006.4
20260506225435 57 220 4.3 6.1 0.00 0.19 0.19 98 1006.6
20260506224931 57 180 4.3 5.2 0.00 0.19 0.19 98 1006.3
20260506224429 57 204 7.0 7.0 0.00 0.19 0.19 99 1006.5
20260506223925 57 218 4.3 6.1 0.00 0.19 0.19 99 1006.4
20260506223420 57 215 6.1 7.8 0.00 0.19 0.19 99 1006.5
20260506222918 58 200 6.1 7.8 0.00 0.19 0.19 99 1006.6
20260506222414 58 217 6.1 9.6 0.00 0.19 0.19 99 1006.6
20260506221912 58 245 1.7 2.6 0.00 0.19 0.19 99 1006.6
20260506221409 58 206 3.5 6.1 0.00 0.19 0.19 99 1006.7
20260506220906 58 233 3.5 5.2 0.00 0.19 0.19 99 1006.7
20260506220402 58 222 3.5 4.3 0.00 0.19 0.19 99 1006.8
20260506215859 58 222 6.1 7.8 0.00 0.19 0.19 99 1006.8
20260506215354 58 209 4.3 6.1 0.00 0.19 0.19 99 1006.8
20260506214850 58 248 4.3 5.2 0.00 0.19 0.19 99 1006.9
20260506214347 58 116 3.5 5.2 0.00 0.19 0.19 99 1007.1
20260506213845 58 229 2.6 4.3 0.00 0.19 0.19 99 1007.0
20260506213342 58 217 3.5 5.2 0.00 0.19 0.19 99 1007.1
20260506212839 58 214 6.1 8.7 0.00 0.19 0.19 99 1007.0
20260506212336 59 125 3.5 4.3 0.00 0.19 0.19 99 1007.1
20260506211830 59 191 4.3 5.2 0.00 0.19 0.19 99 1007.1
20260506211327 59 226 2.6 2.6 0.05 0.19 0.19 99 1007.2
20260506210824 59 200 5.2 6.1 0.07 0.18 0.18 99 1007.2
20260506210321 59 180 5.2 7.0 0.12 0.18 0.18 99 1007.3
20260506205818 59 132 0.9 1.7 0.12 0.17 0.17 99 1007.3
20260506205314 59 142 2.6 2.6 0.14 0.16 0.16 99 1007.4
20260506204810 59 107 1.7 1.7 0.12 0.15 0.15 99 1007.3
20260506204308 59 164 3.5 4.3 0.12 0.14 0.14 99 1007.6
20260506203806 59 108 0.9 0.9 0.05 0.12 0.12 99 1007.5
20260506203303 59 130 1.7 1.7 0.05 0.12 0.12 99 1007.6
20260506202800 59 188 3.5 6.1 0.07 0.11 0.11 99 1007.6
20260506202256 59 110 0.9 0.9 0.12 0.11 0.11 99 1007.5
20260506201747 59 180 1.7 1.7 0.05 0.10 0.10 99 1007.5
20260506201244 59 157 0.9 0.9 0.07 0.09 0.09 99 1007.6
20260506200741 59 138 0.9 0.9 0.07 0.09 0.09 98 1007.7
20260506200238 59 144 0.9 0.9 0.00 0.08 0.08 98 1007.6
20260506195734 59 93 0.0 0.0 0.00 0.08 0.08 98 1007.5
20260506195231 59 89 0.0 0.9 0.00 0.08 0.08 98 1007.3
20260506194728 59 95 0.0 0.0 0.00 0.08 0.08 98 1007.4
20260506194224 59 116 0.9 1.7 0.05 0.08 0.08 98 1007.5
20260506193723 59 155 0.9 1.7 0.05 0.08 0.08 98 1007.8
20260506193219 59 193 1.7 1.7 0.00 0.07 0.07 98 1007.8
20260506192715 59 135 1.7 1.7 0.00 0.07 0.07 98 1007.7
20260506192212 59 209 0.9 1.7 0.00 0.07 0.07 98 1008.0
20260506191709 59 202 0.9 1.7 0.07 0.07 0.07 98 1008.1
20260506191205 59 260 0.9 1.7 0.07 0.07 0.07 98 1008.1
20260506190702 59 215 2.6 4.3 0.05 0.06 0.06 98 1008.1
20260506190153 59 173 2.6 2.6 0.12 0.06 0.06 98 1008.2
20260506185650 59 163 2.6 4.3 0.07 0.05 0.05 98 1008.6
20260506185146 59 223 2.6 4.3 0.05 0.04 0.04 98 1008.5
20260506184644 59 158 1.7 2.6 0.05 0.04 0.04 98 1008.4
20260506184141 60 166 1.7 1.7 0.00 0.03 0.03 98 1008.6
20260506183638 60 168 0.9 1.7 0.00 0.03 0.03 97 1008.5
20260506183134 60 178 1.7 1.7 0.07 0.03 0.03 97 1008.7
20260506182632 60 209 3.5 4.3 0.07 0.03 0.03 96 1008.7
20260506182128 60 200 5.2 6.1 0.07 0.02 0.02 95 1009.0
20260506181626 61 220 4.3 5.2 0.12 0.02 0.02 94 1008.8
20260506181123 62 218 6.1 7.0 0.05 0.01 0.01 91 1008.8
20260506180620 63 237 8.7 9.6 0.00 0.00 0.00 86 1008.7
20260506180116 64 216 5.2 7.0 0.00 0.00 0.00 81 1008.5
20260506175613 66 222 7.8 8.7 0.00 0.00 0.00 77 1008.2
20260506175109 66 238 9.6 14.8 0.00 0.00 0.00 75 1008.1
20260506174608 66 227 7.8 8.7 0.00 0.00 0.00 73 1008.0
20260506174104 67 221 7.8 9.6 0.00 0.00 0.00 73 1007.8
20260506173602 67 228 7.0 8.7 0.00 0.00 0.00 73 1007.9
20260506173058 67 234 9.6 13.0 0.00 0.00 0.00 72 1008.0
20260506172556 67 236 7.8 9.6 0.00 0.00 0.00 71 1007.9
20260506172051 67 227 7.0 7.8 0.00 0.00 0.00 71 1008.0
20260506171549 67 207 6.1 7.0 0.00 0.00 0.00 71 1007.9
20260506171047 67 201 6.1 7.0 0.00 0.00 0.00 71 1007.9
20260506170543 67 207 6.1 7.0 0.00 0.00 0.00 71 1008.0
20260506170035 67 257 6.1 7.0 0.00 0.00 0.00 71 1008.1
20260506165534 67 229 8.7 11.3 0.00 0.00 0.00 72 1008.2
20260506165030 67 153 6.1 7.8 0.00 0.00 0.00 73 1008.4
20260506164527 67 196 4.3 6.1 0.00 0.00 0.00 73 1008.4
20260506164024 67 159 6.1 7.0 0.00 0.00 0.00 73 1008.5
20260506163520 66 218 2.6 4.3 0.00 0.00 0.00 74 1008.7
20260506163016 66 205 5.2 6.1 0.00 0.00 0.00 74 1008.8
20260506162512 66 154 4.3 6.1 0.00 0.00 0.00 74 1008.9
20260506162009 66 126 3.5 5.2 0.00 0.00 0.00 75 1009.0
20260506161507 66 158 4.3 6.1 0.00 0.00 0.00 75 1009.2
20260506161004 65 163 2.6 2.6 0.00 0.00 0.00 76 1009.3
20260506160502 66 153 4.3 5.2 0.00 0.00 0.00 76 1009.4
20260506155958 65 239 4.3 6.1 0.00 0.00 0.00 77 1009.5
20260506155456 65 184 3.5 4.3 0.00 0.00 0.00 77 1009.6
20260506153628 64 262 5.2 7.0 0.00 0.00 0.00 79 1010.1
20260506153125 64 220 7.8 9.6 0.00 0.00 0.00 78 1010.2
20260506152622 64 233 2.6 4.3 0.00 0.00 0.00 79 1010.2
20260506152120 64 197 5.2 6.1 0.00 0.00 0.00 79 1010.1
20260506151619 64 241 6.1 7.0 0.00 0.00 0.00 79 1009.8
20260506151115 64 238 3.5 5.2 0.00 0.00 0.00 79 1009.8
20260506150612 64 160 1.7 2.6 0.00 0.00 0.00 79 1009.9
20260506150109 64 209 5.2 6.1 0.00 0.00 0.00 80 1010.1
20260506145606 64 195 2.6 2.6 0.00 0.00 0.00 79 1010.0
20260506145103 64 208 3.5 4.3 0.00 0.00 0.00 79 1010.0
20260506144559 64 117 1.7 1.7 0.00 0.00 0.00 79 1009.6
20260506144056 64 182 2.6 2.6 0.00 0.00 0.00 80 1009.9
20260506143554 64 223 4.3 5.2 0.00 0.00 0.00 80 1010.0
20260506143052 63 180 2.6 4.3 0.00 0.00 0.00 81 1009.8
20260506142550 63 195 4.3 5.2 0.00 0.00 0.00 82 1009.8
20260506142048 63 160 1.7 1.7 0.00 0.00 0.00 82 1009.7
20260506141546 63 199 2.6 2.6 0.00 0.00 0.00 82 1009.7
20260506141044 62 228 4.3 5.2 0.00 0.00 0.00 83 1009.8
20260506140541 62 160 3.5 4.3 0.00 0.00 0.00 82 1009.9
20260506140038 62 185 2.6 2.6 0.00 0.00 0.00 83 1009.9
20260506135535 62 226 2.6 2.6 0.00 0.00 0.00 83 1010.1
20260506135031 62 197 2.6 2.6 0.00 0.00 0.00 83 1009.9
20260506134528 62 238 3.5 5.2 0.00 0.00 0.00 84 1010.1
20260506134024 62 178 3.5 4.3 0.00 0.00 0.00 84 1010.1
20260506133521 61 178 2.6 2.6 0.00 0.00 0.00 84 1010.2
20260506133018 61 179 3.5 4.3 0.00 0.00 0.00 84 1010.3
20260506132515 61 249 2.6 2.6 0.00 0.00 0.00 84 1010.3
20260506132012 61 220 3.5 4.3 0.00 0.00 0.00 84 1010.1
20260506131509 61 217 2.6 2.6 0.00 0.00 0.00 84 1010.2
20260506131006 61 217 3.5 5.2 0.00 0.00 0.00 85 1010.4
20260506130503 60 233 4.3 5.2 0.00 0.00 0.00 85 1010.3
20260506130000 60 131 2.6 2.6 0.00 0.00 0.00 85 1010.2
20260506125458 60 220 3.5 4.3 0.00 0.00 0.00 85 1010.1
20260506124955 60 238 3.5 4.3 0.00 0.00 0.00 86 1010.4
20260506124453 60 214 4.3 6.1 0.00 0.00 0.00 85 1010.2
20260506123951 60 188 2.6 4.3 0.00 0.00 0.00 85 1010.2
20260506123449 60 162 3.5 5.2 0.00 0.00 0.00 86 1010.3
20260506122946 60 199 4.3 5.2 0.00 0.00 0.00 86 1010.2
20260506122443 59 214 4.3 5.2 0.00 0.00 0.00 86 1010.4
20260506121941 59 227 4.3 6.1 0.00 0.00 0.00 86 1010.5
20260506121438 59 217 7.8 8.7 0.00 0.00 0.00 86 1010.3
20260506120935 59 217 4.3 6.1 0.00 0.00 0.00 86 1010.3
20260506120432 59 191 3.5 4.3 0.00 0.00 0.00 86 1010.3
20260506115929 59 237 3.5 4.3 0.00 0.00 0.00 87 1010.6
20260506115427 59 247 4.3 5.2 0.00 0.00 0.00 87 1010.7
20260506114925 58 221 4.3 6.1 0.00 0.00 0.00 87 1010.7
20260506114423 58 237 3.5 4.3 0.00 0.00 0.00 87 1010.6
20260506113921 59 200 5.2 6.1 0.00 0.00 0.00 87 1010.5
20260506113419 58 177 3.5 5.2 0.00 0.00 0.00 86 1010.5
20260506112915 58 205 4.3 5.2 0.00 0.00 0.00 87 1010.4
20260506112413 58 210 3.5 5.2 0.00 0.00 0.00 88 1010.9
20260506111910 57 236 2.6 2.6 0.00 0.00 0.00 88 1010.9
20260506111408 57 209 4.3 5.2 0.00 0.00 0.00 88 1010.9
20260506110905 57 189 2.6 4.3 0.00 0.00 0.00 88 1010.9
20260506110402 57 227 3.5 4.3 0.00 0.00 0.00 89 1011.1
20260506105859 57 245 4.3 6.1 0.00 0.00 0.00 88 1010.9
20260506105355 57 224 2.6 4.3 0.00 0.00 0.00 88 1010.8
20260506104853 57 243 2.6 4.3 0.00 0.00 0.00 88 1010.9
20260506104350 57 258 3.5 5.2 0.00 0.00 0.00 88 1010.8
20260506103848 57 203 4.3 6.1 0.00 0.00 0.00 88 1010.7
20260506103345 57 223 2.6 2.6 0.00 0.00 0.00 88 1010.8
20260506102842 57 242 2.6 2.6 0.00 0.00 0.00 88 1010.7
20260506102340 57 248 3.5 4.3 0.00 0.00 0.00 87 1010.8
20260506101837 57 239 3.5 4.3 0.00 0.00 0.00 86 1010.6
20260506101333 57 218 4.3 5.2 0.00 0.00 0.00 87 1010.4
20260506100831 57 206 4.3 5.2 0.00 0.00 0.00 87 1010.4
20260506100329 56 220 4.3 5.2 0.00 0.00 0.00 87 1010.6
20260506095827 56 236 3.5 4.3 0.00 0.00 0.00 88 1010.7
20260506095324 56 241 4.3 5.2 0.00 0.00 0.00 87 1010.6
20260506094821 57 239 2.6 4.3 0.00 0.00 0.00 85 1010.3
20260506094320 57 160 1.7 1.7 0.00 0.00 0.00 86 1010.5
20260506093818 56 233 3.5 4.3 0.00 0.00 0.00 87 1010.4
20260506093314 56 229 3.5 6.1 0.00 0.00 0.00 87 1010.5
20260506092812 57 238 4.3 4.3 0.00 0.00 0.00 86 1010.5
20260506092310 57 246 3.5 4.3 0.00 0.00 0.00 85 1010.5
20260506091807 57 221 4.3 6.1 0.00 0.00 0.00 85 1010.5
20260506091304 57 235 2.6 4.3 0.00 0.00 0.00 85 1010.3
20260506090802 57 258 4.3 5.2 0.00 0.00 0.00 86 1010.5
20260506090259 58 235 3.5 4.3 0.00 0.00 0.00 82 1010.4
20260506085755 58 225 2.6 2.6 0.00 0.00 0.00 83 1010.3
20260506085251 58 225 3.5 5.2 0.00 0.00 0.00 84 1010.6
20260506084748 58 226 4.3 5.2 0.00 0.00 0.00 82 1010.6
20260506084244 59 230 4.3 5.2 0.00 0.00 0.00 82 1010.7
20260506083742 59 213 4.3 5.2 0.00 0.00 0.00 81 1010.7
20260506083240 59 223 5.2 6.1 0.00 0.00 0.00 80 1010.5
20260506082737 59 199 6.1 7.0 0.00 0.00 0.00 80 1010.6
20260506082232 59 203 4.3 4.3 0.00 0.00 0.00 80 1010.4
20260506081730 59 229 4.3 6.1 0.00 0.00 0.00 80 1010.3
20260506081227 59 199 3.5 4.3 0.00 0.00 0.00 82 1010.3
20260506080726 59 222 5.2 6.1 0.00 0.00 0.00 81 1010.4
20260506080222 59 242 4.3 5.2 0.00 0.00 0.00 80 1010.4
20260506073206 60 216 4.3 5.2 0.00 0.00 0.00 79 1010.5
20260506072702 59 227 2.6 2.6 0.00 0.00 0.00 79 1010.4
20260506072200 59 259 2.6 2.6 0.00 0.00 0.00 79 1010.7
20260506071657 59 250 2.6 2.6 0.00 0.00 0.00 80 1010.5
20260506071155 59 235 3.5 4.3 0.00 0.00 0.00 80 1010.3
20260506070652 59 203 2.6 2.6 0.00 0.00 0.00 81 1010.2
20260506070149 60 245 2.6 2.6 0.00 0.00 0.00 80 1010.1
20260506062126 60 202 2.6 2.6 0.00 0.00 0.00 77 1010.1
20260506061622 60 226 2.6 2.6 0.00 0.00 0.00 77 1010.2
20260506061120 60 222 2.6 4.3 0.00 0.00 0.00 77 1010.1
20260506060618 60 225 2.6 4.3 0.00 0.00 0.00 76 1010.2
20260506060114 60 196 3.5 4.3 0.00 0.00 0.00 76 1010.1
20260506051046 61 231 3.5 4.3 0.00 0.00 0.00 77 1010.4
20260506050544 61 209 4.3 4.3 0.00 0.00 0.00 77 1010.4
20260506045035 61 217 2.6 2.6 0.00 0.00 0.00 76 1010.4
20260506044533 61 241 4.3 5.2 0.00 0.00 0.00 77 1010.6
20260506044029 61 229 4.3 5.2 0.00 0.00 0.00 78 1010.4
20260506043526 61 232 2.6 4.3 0.00 0.00 0.00 78 1010.3
20260506043025 61 222 3.5 4.3 0.00 0.00 0.00 79 1010.3
20260506042524 61 223 4.3 5.2 0.00 0.00 0.00 79 1010.2
20260506042021 61 187 2.6 4.3 0.00 0.00 0.00 80 1010.3
20260506041520 61 223 4.3 5.2 0.00 0.00 0.00 79 1010.3
20260506041016 61 215 3.5 4.3 0.00 0.00 0.00 81 1010.2